Regional Weather Roundup
Issued by NWS Cleveland, OH

Home | Current Version | Previous Version | Graphics & Text | Print | Product List | Glossary On
Versions: 1 2 3 4 5 6 7 8 9 10 11 12 13 14 15 16 17 18 19 20 21 22 23 24 25 26 27 28 29 30 31 32 33 34 35 36 37 38 39 40 41 42 43 44 45 46 47 48 49 50
000
ASUS41 KCLE 190302
RWRCLE
OHIO REGIONAL WEATHER ROUNDUP
NATIONAL WEATHER SERVICE CLEVELAND, OH
1000 PM EST SAT NOV 18 2017

NOTE: "FAIR" INDICATES FEW OR NO CLOUDS BELOW 12,000 FEET WITH NO
SIGNIFICANT WEATHER AND/OR OBSTRUCTIONS TO VISIBILITY.

OHZ001>008-015>018-024>027-034-035-043-044-190400-
   NORTHWEST OHIO

CITY           SKY/WX    TMP DP  RH WIND       PRES   REMARKS
DEFIANCE       CLOUDY    39  34  82 NW16      29.53R
FINDLAY        FLURRIES  36  32  85 NW20G28   29.46R
TOLEDO EXPRESS LGT RAIN  38  36  92 NW15      29.48R
TOLEDO EXEC    FLURRIES  36  33  89 NW16      29.46R
LIMA           NOT AVBL
$$

OHZ009>014-019>023-028>033-038-089-190400-
   NORTHEAST OHIO

CITY           SKY/WX    TMP DP  RH WIND       PRES   REMARKS
CLE-HOPKINS    LGT RAIN  43  40  89 NW20G37   29.31R FOG
CLE-LAKEFRONT  LGT RAIN  44  41  89 NW29G38   29.25R FOG
CUY CO. ARPT   LGT RAIN  45  45 100 NW14G23   29.23R FOG
LORAIN-ELYRIA  RAIN      38  33  82 N22G35    29.35R
ASHTABULA      CLOUDY    49  48  97 NW13G24   29.15R FOG
AKRON-CANTON   LGT RAIN  47  44  90 NW17G30   29.19R FOG
WOOSTER        LGT RAIN  42  41  96 NW24G37   29.29R FOG
MANSFIELD      RAIN      39  38  96 NW21G37   29.34R FOG
YOUNGSTOWN     LGT RAIN  55  54  96 S10       29.14F FOG
$$

OHZ042-051>053-060>062-070>072-077>081-190400-
  SOUTHWEST OHIO

CITY           SKY/WX    TMP DP  RH WIND       PRES   REMARKS
CINC-COVINGTON LGT RAIN  42  40  92 NW23G37   29.59R
CINC-LUNKEN    LGT RAIN  44  42  93 NW12G25   29.60R
HAMILTON       LGT RAIN  42  39  89 NW24G37   29.60R
DAYTON         LGT RAIN  38  38 100 NW28G37   29.53R
WRIGHT-PAT AFB LGT RAIN  40  39  98 NW21G31   29.51R
DAYTON GENERAL RAIN      40  37  89 NW22G31   29.54R FOG
WILMINGTON     LGT RAIN  41  40  96 NW26G36   29.49R FOG
$$

OHZ036-037-039>041-045>050-054>059-063>069-073>076-082>088-190400-
  CENTRAL AND SOUTHEAST OHIO

CITY           SKY/WX    TMP DP  RH WIND       PRES   REMARKS
COLUMBUS       CLOUDY    45  44  97 NW24G37   29.35R
OSU AIRPORT    LGT RAIN  42  40  92 NW25G41   29.38R
BOLTON FIELD   DRIZZLE   43  40  89 NW21G32   29.39R
RICKENBACK AFB CLOUDY    44  43  97 NW18G25   29.37R
NEWARK         LGT RAIN  47  42  83 NW20G30   29.30R
MARION         LGT SNOW  38  34  85 NW25G38   29.41R FOG
LANCASTER      LGT RAIN  46  44  93 NW20G32   29.35R
ZANESVILLE     CLOUDY    54  51  90 W23G33    29.23R
NEW PHILLY     NOT AVBL
$$



USA.gov is the U.S. government's official web portal to all federal, state and local government web resources and services.